| time (UTC) | temp F | wind direction | speed MPH | gust MPH | rain 1hr in | rain 24hr in | rain mn in | humidity % | barometer mb |
| 20260504050339 | 65 | 206 | 4.0 | 9.0 | 0.00 | 0.00 | 0.00 | 56 | 1006.1 |
| 20260504045841 | 65 | 200 | 4.0 | 10.0 | 0.00 | 0.00 | 0.00 | 55 | 1006.1 |
| 20260504044840 | 65 | 213 | 5.0 | 12.0 | 0.00 | 0.00 | 0.00 | 56 | 1006.2 |
| 20260504044339 | 64 | 179 | 5.0 | 12.0 | 0.00 | 0.00 | 0.00 | 57 | 1006.2 |
| 20260504043339 | 63 | 196 | 4.0 | 11.0 | 0.00 | 0.00 | 0.00 | 59 | 1006.2 |
| 20260504042838 | 63 | 213 | 5.0 | 11.0 | 0.00 | 0.00 | 0.00 | 61 | 1006.3 |
| 20260504042339 | 62 | 230 | 5.0 | 10.0 | 0.00 | 0.00 | 0.00 | 62 | 1006.3 |
| 20260504041838 | 62 | 207 | 4.0 | 10.0 | 0.00 | 0.00 | 0.00 | 62 | 1006.3 |
| 20260504041338 | 61 | 214 | 4.0 | 9.0 | 0.00 | 0.00 | 0.00 | 64 | 1006.3 |
| 20260504040839 | 61 | 196 | 3.0 | 6.0 | 0.00 | 0.00 | 0.00 | 66 | 1006.4 |
| 20260504035338 | 61 | 173 | 2.0 | 4.0 | 0.00 | 0.00 | 0.00 | 66 | 1006.5 |
| 20260504034337 | 61 | 178 | 1.0 | 7.0 | 0.00 | 0.00 | 0.00 | 65 | 1006.6 |
| 20260504033837 | 62 | 178 | 3.0 | 7.0 | 0.00 | 0.00 | 0.00 | 64 | 1006.6 |
| 20260504033337 | 62 | 182 | 2.0 | 4.0 | 0.00 | 0.00 | 0.00 | 64 | 1006.6 |
| 20260504032838 | 62 | 166 | 1.0 | 4.0 | 0.00 | 0.00 | 0.00 | 64 | 1006.6 |
| 20260504032337 | 62 | 179 | 3.0 | 4.0 | 0.00 | 0.00 | 0.00 | 64 | 1006.5 |
| 20260504031837 | 62 | 161 | 2.0 | 5.0 | 0.00 | 0.00 | 0.00 | 64 | 1006.5 |
| 20260504031337 | 63 | 175 | 2.0 | 7.0 | 0.00 | 0.00 | 0.00 | 63 | 1006.7 |
| 20260504030837 | 63 | 189 | 3.0 | 7.0 | 0.00 | 0.00 | 0.00 | 64 | 1006.6 |
| 20260504030336 | 63 | 175 | 2.0 | 5.0 | 0.00 | 0.00 | 0.00 | 62 | 1006.6 |
| 20260504025836 | 64 | 182 | 2.0 | 4.0 | 0.00 | 0.00 | 0.00 | 62 | 1006.6 |
| 20260504024836 | 65 | 158 | 2.0 | 4.0 | 0.00 | 0.00 | 0.00 | 61 | 1006.5 |
| 20260504024336 | 65 | 172 | 2.0 | 4.0 | 0.00 | 0.00 | 0.00 | 60 | 1006.6 |
| 20260504023837 | 65 | 216 | 2.0 | 3.0 | 0.00 | 0.00 | 0.00 | 60 | 1006.5 |
| 20260504023336 | 66 | 176 | 1.0 | 3.0 | 0.00 | 0.00 | 0.00 | 59 | 1006.5 |
| 20260504022836 | 67 | 182 | 1.0 | 2.0 | 0.00 | 0.00 | 0.00 | 59 | 1006.5 |
| 20260504021838 | 67 | 210 | 2.0 | 4.0 | 0.00 | 0.00 | 0.00 | 57 | 1006.5 |
| 20260504021337 | 68 | 195 | 0.0 | 2.0 | 0.00 | 0.00 | 0.00 | 55 | 1006.6 |
| 20260504020336 | 69 | 195 | 1.0 | 5.0 | 0.00 | 0.00 | 0.00 | 55 | 1006.6 |
| 20260504015836 | 69 | 203 | 2.0 | 5.0 | 0.00 | 0.00 | 0.00 | 55 | 1006.6 |
| 20260504015335 | 69 | 199 | 2.0 | 5.0 | 0.00 | 0.00 | 0.00 | 54 | 1006.7 |
| 20260504014835 | 70 | 202 | 2.0 | 6.0 | 0.00 | 0.00 | 0.00 | 54 | 1006.5 |
| 20260504014334 | 70 | 212 | 3.0 | 6.0 | 0.00 | 0.00 | 0.00 | 50 | 1006.5 |
| 20260504013335 | 71 | 204 | 2.0 | 9.0 | 0.00 | 0.00 | 0.00 | 50 | 1006.5 |
| 20260504012834 | 71 | 214 | 3.0 | 9.0 | 0.00 | 0.00 | 0.00 | 48 | 1006.5 |
| 20260504012334 | 72 | 182 | 3.0 | 5.0 | 0.00 | 0.00 | 0.00 | 49 | 1006.4 |
| 20260504011835 | 73 | 190 | 2.0 | 6.0 | 0.00 | 0.00 | 0.00 | 48 | 1006.4 |
| 20260504011334 | 73 | 214 | 2.0 | 7.0 | 0.00 | 0.00 | 0.00 | 47 | 1006.4 |
| 20260504010834 | 74 | 220 | 2.0 | 7.0 | 0.00 | 0.00 | 0.00 | 46 | 1006.4 |
| 20260504005333 | 75 | 173 | 2.0 | 9.0 | 0.00 | 0.00 | 0.00 | 43 | 1006.4 |
| 20260504004833 | 76 | 188 | 3.0 | 9.0 | 0.00 | 0.00 | 0.00 | 41 | 1006.4 |
| 20260504004334 | 76 | 179 | 4.0 | 9.0 | 0.00 | 0.00 | 0.00 | 40 | 1006.4 |
| 20260504003833 | 76 | 214 | 3.0 | 10.0 | 0.00 | 0.00 | 0.00 | 41 | 1006.7 |
| 20260504003334 | 77 | 175 | 4.0 | 12.0 | 0.00 | 0.00 | 0.00 | 40 | 1006.6 |
| 20260504002833 | 77 | 188 | 4.0 | 12.0 | 0.00 | 0.00 | 0.00 | 39 | 1006.6 |
| 20260504002333 | 78 | 195 | 4.0 | 9.0 | 0.00 | 0.00 | 0.00 | 40 | 1006.6 |
| 20260504001833 | 78 | 190 | 4.0 | 9.0 | 0.00 | 0.00 | 0.00 | 42 | 1006.6 |
| 20260504001332 | 78 | 179 | 4.0 | 9.0 | 0.00 | 0.00 | 0.00 | 47 | 1006.7 |
| 20260504000833 | 79 | 169 | 3.0 | 4.0 | 0.00 | 0.00 | 0.00 | 45 | 1006.7 |
| 20260504000332 | 79 | 165 | 2.0 | 4.0 | 0.00 | 0.00 | 0.00 | 43 | 1006.8 |
| 20260503235332 | 80 | 185 | 0.0 | 5.0 | 0.00 | 0.00 | 0.00 | 44 | 1006.9 |
| 20260503234331 | 80 | 219 | 2.0 | 6.0 | 0.00 | 0.00 | 0.00 | 40 | 1007.2 |
| 20260503233831 | 81 | 223 | 3.0 | 5.0 | 0.00 | 0.00 | 0.00 | 40 | 1007.3 |
| 20260503233331 | 81 | 180 | 2.0 | 5.0 | 0.00 | 0.00 | 0.00 | 40 | 1007.3 |
| 20260503232831 | 81 | 202 | 3.0 | 5.0 | 0.00 | 0.00 | 0.00 | 35 | 1007.4 |
| 20260503231831 | 81 | 212 | 2.0 | 9.0 | 0.00 | 0.00 | 0.00 | 34 | 1007.5 |
| 20260503231332 | 81 | 210 | 4.0 | 9.0 | 0.00 | 0.00 | 0.00 | 33 | 1007.5 |
| 20260503230831 | 81 | 204 | 3.0 | 9.0 | 0.00 | 0.00 | 0.00 | 35 | 1007.6 |
| 20260503230331 | 81 | 259 | 4.0 | 10.0 | 0.00 | 0.00 | 0.00 | 33 | 1007.6 |
| 20260503225831 | 81 | 200 | 4.0 | 11.0 | 0.00 | 0.00 | 0.00 | 36 | 1007.7 |
| 20260503225331 | 81 | 240 | 5.0 | 11.0 | 0.00 | 0.00 | 0.00 | 33 | 1007.7 |
| 20260503224331 | 81 | 213 | 5.0 | 10.0 | 0.00 | 0.00 | 0.00 | 33 | 1007.7 |
| 20260503223831 | 81 | 212 | 3.0 | 11.0 | 0.00 | 0.00 | 0.00 | 34 | 1007.8 |
| 20260503223331 | 81 | 204 | 4.0 | 13.0 | 0.00 | 0.00 | 0.00 | 32 | 1007.7 |
| 20260503222830 | 82 | 233 | 7.0 | 13.0 | 0.00 | 0.00 | 0.00 | 32 | 1007.8 |
| 20260503222330 | 82 | 214 | 6.0 | 13.0 | 0.00 | 0.00 | 0.00 | 32 | 1007.7 |
| 20260503221830 | 82 | 227 | 4.0 | 13.0 | 0.00 | 0.00 | 0.00 | 33 | 1007.9 |
| 20260503221330 | 83 | 254 | 5.0 | 11.0 | 0.00 | 0.00 | 0.00 | 33 | 1008.0 |
| 20260503220829 | 83 | 227 | 5.0 | 12.0 | 0.00 | 0.00 | 0.00 | 31 | 1008.0 |
| 20260503220330 | 83 | 262 | 6.0 | 15.0 | 0.00 | 0.00 | 0.00 | 31 | 1008.1 |
| 20260503215829 | 84 | 238 | 6.0 | 17.0 | 0.00 | 0.00 | 0.00 | 32 | 1008.3 |
| 20260503215329 | 84 | 237 | 9.0 | 17.0 | 0.00 | 0.00 | 0.00 | 29 | 1008.3 |
| 20260503214829 | 85 | 223 | 7.0 | 17.0 | 0.00 | 0.00 | 0.00 | 32 | 1008.3 |
| 20260503213829 | 85 | 240 | 8.0 | 19.0 | 0.00 | 0.00 | 0.00 | 31 | 1008.4 |
| 20260503213329 | 85 | 248 | 7.0 | 16.0 | 0.00 | 0.00 | 0.00 | 30 | 1008.5 |
| 20260503211830 | 85 | 254 | 8.0 | 17.0 | 0.00 | 0.00 | 0.00 | 27 | 1008.5 |
| 20260503211328 | 85 | 223 | 7.0 | 17.0 | 0.00 | 0.00 | 0.00 | 32 | 1008.7 |
| 20260503210329 | 85 | 234 | 10.0 | 18.0 | 0.00 | 0.00 | 0.00 | 33 | 1008.8 |
| 20260503205828 | 85 | 248 | 7.0 | 14.0 | 0.00 | 0.00 | 0.00 | 35 | 1008.8 |
| 20260503205329 | 85 | 255 | 6.0 | 14.0 | 0.00 | 0.00 | 0.00 | 36 | 1008.9 |
| 20260503204828 | 85 | 244 | 8.0 | 14.0 | 0.00 | 0.00 | 0.00 | 33 | 1008.9 |
| 20260503204328 | 85 | 227 | 6.0 | 16.0 | 0.00 | 0.00 | 0.00 | 33 | 1009.0 |
| 20260503203827 | 85 | 188 | 5.0 | 17.0 | 0.00 | 0.00 | 0.00 | 40 | 1009.1 |
| 20260503203327 | 85 | 199 | 7.0 | 17.0 | 0.00 | 0.00 | 0.00 | 35 | 1009.2 |
| 20260503202828 | 85 | 233 | 6.0 | 17.0 | 0.00 | 0.00 | 0.00 | 37 | 1009.2 |
| 20260503201827 | 84 | 196 | 6.0 | 12.0 | 0.00 | 0.00 | 0.00 | 37 | 1009.3 |
| 20260503201328 | 84 | 196 | 5.0 | 15.0 | 0.00 | 0.00 | 0.00 | 38 | 1009.4 |
| 20260503200827 | 84 | 216 | 6.0 | 15.0 | 0.00 | 0.00 | 0.00 | 38 | 1009.5 |
| 20260503200327 | 84 | 190 | 7.0 | 15.0 | 0.00 | 0.00 | 0.00 | 37 | 1009.5 |
| 20260503195327 | 84 | 241 | 8.0 | 15.0 | 0.00 | 0.00 | 0.00 | 36 | 1009.7 |
| 20260503193826 | 83 | 192 | 9.0 | 15.0 | 0.00 | 0.00 | 0.00 | 39 | 1010.0 |
| 20260503192826 | 83 | 188 | 9.0 | 14.0 | 0.00 | 0.00 | 0.00 | 38 | 1010.1 |
| 20260503191825 | 82 | 188 | 9.0 | 19.0 | 0.00 | 0.00 | 0.00 | 38 | 1010.1 |
| 20260503191326 | 82 | 244 | 6.0 | 18.0 | 0.00 | 0.00 | 0.00 | 40 | 1010.1 |
| 20260503190825 | 82 | 206 | 7.0 | 16.0 | 0.00 | 0.00 | 0.00 | 40 | 1010.3 |
| 20260503190326 | 81 | 243 | 10.0 | 16.0 | 0.00 | 0.00 | 0.00 | 40 | 1010.3 |
| 20260503185825 | 81 | 219 | 7.0 | 18.0 | 0.00 | 0.00 | 0.00 | 44 | 1010.3 |
| 20260503185325 | 81 | 171 | 8.0 | 18.0 | 0.00 | 0.00 | 0.00 | 47 | 1010.4 |
| 20260503184825 | 80 | 227 | 6.0 | 13.0 | 0.00 | 0.00 | 0.00 | 46 | 1010.5 |
| 20260503184325 | 80 | 226 | 6.0 | 15.0 | 0.00 | 0.00 | 0.00 | 48 | 1010.5 |
| 20260503183824 | 79 | 209 | 8.0 | 18.0 | 0.00 | 0.00 | 0.00 | 47 | 1010.6 |
| 20260503183325 | 79 | 202 | 11.0 | 18.0 | 0.00 | 0.00 | 0.00 | 47 | 1010.9 |
| 20260503182824 | 79 | 231 | 9.0 | 17.0 | 0.00 | 0.00 | 0.00 | 45 | 1010.9 |
| 20260503182324 | 78 | 216 | 6.0 | 19.0 | 0.00 | 0.00 | 0.00 | 44 | 1011.0 |
| 20260503181824 | 78 | 202 | 9.0 | 19.0 | 0.00 | 0.00 | 0.00 | 45 | 1011.2 |
| 20260503181325 | 78 | 195 | 10.0 | 16.0 | 0.00 | 0.00 | 0.00 | 47 | 1011.3 |
| 20260503180824 | 78 | 216 | 9.0 | 15.0 | 0.00 | 0.00 | 0.00 | 48 | 1011.4 |
| 20260503180323 | 78 | 220 | 7.0 | 15.0 | 0.00 | 0.00 | 0.00 | 47 | 1011.5 |
| 20260503175823 | 77 | 192 | 8.0 | 16.0 | 0.00 | 0.00 | 0.00 | 48 | 1011.7 |
| 20260503175324 | 77 | 209 | 8.0 | 16.0 | 0.00 | 0.00 | 0.00 | 46 | 1011.8 |
| 20260503174324 | 77 | 247 | 10.0 | 17.0 | 0.00 | 0.00 | 0.00 | 46 | 1012.0 |
| 20260503173823 | 76 | 251 | 5.0 | 19.0 | 0.00 | 0.00 | 0.00 | 51 | 1012.1 |
| 20260503173323 | 76 | 216 | 7.0 | 19.0 | 0.00 | 0.00 | 0.00 | 53 | 1012.3 |
| 20260503172823 | 76 | 207 | 8.0 | 17.0 | 0.00 | 0.00 | 0.00 | 46 | 1012.3 |
| 20260503172324 | 76 | 272 | 6.0 | 17.0 | 0.00 | 0.00 | 0.00 | 53 | 1012.4 |
| 20260503171823 | 75 | 240 | 8.0 | 17.0 | 0.00 | 0.00 | 0.00 | 47 | 1012.5 |
| 20260503171323 | 75 | 209 | 9.0 | 17.0 | 0.00 | 0.00 | 0.00 | 51 | 1012.5 |
| 20260503170822 | 75 | 210 | 9.0 | 15.0 | 0.00 | 0.00 | 0.00 | 49 | 1012.4 |
| 20260503170322 | 74 | 238 | 6.0 | 19.0 | 0.00 | 0.00 | 0.00 | 52 | 1012.6 |
| 20260503150820 | 67 | 233 | 6.0 | 17.0 | 0.00 | 0.00 | 0.00 | 60 | 1013.3 |
| 20260503150319 | 67 | 171 | 5.0 | 15.0 | 0.00 | 0.00 | 0.00 | 60 | 1013.4 |
| 20260503131317 | 53 | 190 | 8.0 | 15.0 | 0.00 | 0.00 | 0.00 | 72 | 1014.0 |
| 20260503130817 | 53 | 166 | 8.0 | 14.0 | 0.00 | 0.00 | 0.00 | 73 | 1013.9 |
| 20260503130317 | 52 | 221 | 4.0 | 14.0 | 0.00 | 0.00 | 0.00 | 75 | 1014.0 |
| 20260503110314 | 41 | 175 | 2.0 | 5.0 | 0.00 | 0.00 | 0.00 | 86 | 1014.8 |
| 20260503090312 | 40 | 148 | 1.0 | 3.0 | 0.00 | 0.00 | 0.00 | 87 | 1015.6 |
| 20260503081311 | 41 | 172 | 2.0 | 7.0 | 0.00 | 0.00 | 0.00 | 89 | 1015.8 |
| 20260503080309 | 41 | 180 | 1.0 | 4.0 | 0.00 | 0.00 | 0.00 | 91 | 1015.8 |
| 20260503072809 | 39 | 171 | 4.0 | 5.0 | 0.00 | 0.00 | 0.00 | 92 | 1016.0 |
| 20260503072309 | 39 | 161 | 4.0 | 5.0 | 0.00 | 0.00 | 0.00 | 92 | 1016.1 |
| 20260503071808 | 39 | 175 | 3.0 | 5.0 | 0.00 | 0.00 | 0.00 | 92 | 1016.0 |
| 20260503071309 | 39 | 178 | 2.0 | 5.0 | 0.00 | 0.00 | 0.00 | 91 | 1016.2 |
| 20260503070308 | 39 | 168 | 2.0 | 4.0 | 0.00 | 0.00 | 0.00 | 91 | 1016.2 |